TimeCDT,TemperatureF,Dew PointF,Humidity,Sea Level PressureIn,VisibilityMPH,Wind Direction,Wind SpeedMPH,Gust SpeedMPH,PrecipitationIn,Events,Conditions,WindDirDegrees,DateUTC
12:15 AM,53.6,50.0,88,-9999,-9999.0,NNW,8.1,-,N/A,,Overcast,340,2013-03-19 05:15:00
12:35 AM,53.6,48.2,82,-9999,-9999.0,North,9.2,-,N/A,,Overcast,360,2013-03-19 05:35:00
12:55 AM,51.8,46.4,82,-9999,-9999.0,NNE,15.0,18.4,N/A,,Mostly Cloudy,20,2013-03-19 05:55:00
1:15 AM,50.0,44.6,82,-9999,-9999.0,North,9.2,19.6,N/A,,Scattered Clouds,360,2013-03-19 06:15:00
1:35 AM,50.0,41.0,71,-9999,-9999.0,North,12.7,17.3,N/A,,Partly Cloudy,360,2013-03-19 06:35:00
1:55 AM,48.2,41.0,76,-9999,-9999.0,North,8.1,-,N/A,,Scattered Clouds,360,2013-03-19 06:55:00
2:15 AM,48.2,41.0,76,-9999,-9999.0,North,10.4,16.1,N/A,,Mostly Cloudy,350,2013-03-19 07:15:00
2:35 AM,46.4,39.2,76,30.02,-9999.0,North,9.2,16.1,N/A,,Scattered Clouds,10,2013-03-19 07:35:00
2:55 AM,46.4,39.2,76,30.04,-9999.0,North,8.1,-,N/A,,Clear,350,2013-03-19 07:55:00
3:15 AM,46.4,39.2,76,30.04,-9999.0,North,6.9,-,N/A,,Clear,360,2013-03-19 08:15:00
3:35 AM,44.6,37.4,76,30.05,-9999.0,North,6.9,-,N/A,,Clear,10,2013-03-19 08:35:00
3:55 AM,44.6,37.4,76,30.05,-9999.0,NNE,4.6,-,N/A,,Clear,20,2013-03-19 08:55:00
4:15 AM,42.8,37.4,81,30.06,-9999.0,North,4.6,-,N/A,,Clear,10,2013-03-19 09:15:00
4:35 AM,44.6,35.6,71,30.06,-9999.0,North,8.1,-,N/A,,Clear,10,2013-03-19 09:35:00
4:55 AM,44.6,33.8,66,30.07,-9999.0,North,6.9,-,N/A,,Clear,10,2013-03-19 09:55:00
5:15 AM,39.2,35.6,87,30.07,-9999.0,NNE,4.6,-,N/A,,Unknown,30,2013-03-19 10:15:00
5:35 AM,39.2,35.6,87,30.07,-9999.0,Calm,Calm,-,N/A,,Unknown,0,2013-03-19 10:35:00
5:55 AM,37.4,35.6,93,30.07,-9999.0,Calm,Calm,-,N/A,,Unknown,0,2013-03-19 10:55:00
6:15 AM,37.4,35.6,93,30.07,-9999.0,Calm,Calm,-,N/A,,Unknown,0,2013-03-19 11:15:00
6:35 AM,37.4,35.6,93,30.08,-9999.0,Calm,Calm,-,N/A,,Unknown,0,2013-03-19 11:35:00
6:55 AM,37.4,35.6,93,30.07,-9999.0,Calm,Calm,-,N/A,,Unknown,0,2013-03-19 11:55:00
7:15 AM,35.6,33.8,93,30.07,-9999.0,Calm,Calm,-,N/A,,Unknown,0,2013-03-19 12:15:00
7:35 AM,35.6,35.6,100,30.08,-9999.0,Calm,Calm,-,N/A,,Unknown,0,2013-03-19 12:35:00
7:55 AM,39.2,35.6,87,30.08,-9999.0,Calm,Calm,-,N/A,,Unknown,0,2013-03-19 12:55:00
8:15 AM,41.0,37.4,87,30.10,-9999.0,Calm,Calm,-,N/A,,Unknown,0,2013-03-19 13:15:00
8:35 AM,44.6,37.4,76,30.11,-9999.0,Calm,Calm,-,N/A,,Clear,0,2013-03-19 13:35:00
8:55 AM,46.4,35.6,66,30.11,-9999.0,Calm,Calm,-,N/A,,Clear,0,2013-03-19 13:55:00
9:15 AM,46.4,35.6,66,30.11,-9999.0,ENE,3.5,-,N/A,,Clear,70,2013-03-19 14:15:00
9:35 AM,48.2,35.6,62,30.11,-9999.0,East,5.8,-,N/A,,Clear,80,2013-03-19 14:35:00
9:55 AM,50.0,33.8,54,30.11,-9999.0,NE,4.6,-,N/A,,Clear,40,2013-03-19 14:55:00
10:15 AM,50.0,35.6,58,30.12,-9999.0,Calm,Calm,-,N/A,,Clear,0,2013-03-19 15:15:00
10:35 AM,50.0,33.8,54,30.12,-9999.0,Calm,Calm,-,N/A,,Clear,0,2013-03-19 15:35:00
10:55 AM,53.6,33.8,47,30.12,-9999.0,ENE,5.8,-,N/A,,Clear,70,2013-03-19 15:55:00
11:15 AM,53.6,33.8,47,30.12,-9999.0,NNE,4.6,-,N/A,,Clear,30,2013-03-19 16:15:00
11:35 AM,53.6,32.0,44,30.12,-9999.0,NE,4.6,-,N/A,,Clear,40,2013-03-19 16:35:00
11:55 AM,55.4,28.4,36,30.13,-9999.0,NNE,9.2,-,N/A,,Clear,30,2013-03-19 16:55:00
12:15 PM,57.2,28.4,33,30.13,-9999.0,North,4.6,-,N/A,,Clear,350,2013-03-19 17:15:00
12:35 PM,57.2,32.0,38,30.13,-9999.0,East,4.6,-,N/A,,Clear,90,2013-03-19 17:35:00
12:55 PM,59.0,26.6,29,30.13,-9999.0,NNW,6.9,16.1,N/A,,Clear,330,2013-03-19 17:55:00
1:15 PM,57.2,28.4,33,30.13,-9999.0,NW,9.2,-,N/A,,Clear,310,2013-03-19 18:15:00
1:35 PM,59.0,26.6,29,30.13,-9999.0,WNW,12.7,16.1,N/A,,Clear,290,2013-03-19 18:35:00
1:55 PM,59.0,24.8,27,30.13,-9999.0,WNW,8.1,18.4,N/A,,Clear,300,2013-03-19 18:55:00
2:15 PM,59.0,26.6,29,30.14,-9999.0,NW,4.6,-,N/A,,Clear,320,2013-03-19 19:15:00
2:35 PM,59.0,28.4,31,30.13,-9999.0,North,8.1,-,N/A,,Scattered Clouds,350,2013-03-19 19:35:00
2:55 PM,59.0,28.4,31,30.12,-9999.0,NNW,5.8,-,N/A,,Overcast,340,2013-03-19 19:55:00
3:15 PM,60.8,28.4,29,30.11,-9999.0,NNW,10.4,17.3,N/A,,Scattered Clouds,340,2013-03-19 20:15:00
3:35 PM,60.8,26.6,27,30.11,-9999.0,North,9.2,18.4,N/A,,Clear,350,2013-03-19 20:35:00
3:55 PM,60.8,24.8,25,30.11,-9999.0,North,11.5,19.6,N/A,,Clear,350,2013-03-19 20:55:00
4:15 PM,60.8,26.6,27,30.10,-9999.0,NNW,10.4,-,N/A,,Clear,340,2013-03-19 21:15:00
4:35 PM,60.8,23.0,23,30.10,-9999.0,NNE,13.8,18.4,N/A,,Partly Cloudy,20,2013-03-19 21:35:00
4:55 PM,59.0,24.8,27,30.11,-9999.0,NNE,9.2,-,N/A,,Mostly Cloudy,20,2013-03-19 21:55:00
5:15 PM,59.0,24.8,27,30.11,-9999.0,NNE,8.1,-,N/A,,Scattered Clouds,30,2013-03-19 22:15:00
5:35 PM,59.0,23.0,25,30.11,-9999.0,North,10.4,-,N/A,,Clear,10,2013-03-19 22:35:00
5:55 PM,57.2,23.0,27,30.11,-9999.0,NNE,10.4,-,N/A,,Clear,20,2013-03-19 22:55:00
6:15 PM,57.2,23.0,27,30.11,-9999.0,North,8.1,-,N/A,,Clear,10,2013-03-19 23:15:00
6:35 PM,57.2,23.0,27,30.11,-9999.0,North,5.8,-,N/A,,Clear,10,2013-03-19 23:35:00
6:55 PM,55.4,23.0,29,30.11,-9999.0,NNE,4.6,-,N/A,,Clear,20,2013-03-19 23:55:00
7:15 PM,53.6,23.0,30,30.11,-9999.0,NNE,4.6,-,N/A,,Clear,20,2013-03-20 00:15:00
7:35 PM,53.6,23.0,30,30.11,-9999.0,NNE,8.1,-,N/A,,Clear,30,2013-03-20 00:35:00
7:55 PM,51.8,21.2,30,30.11,-9999.0,North,9.2,-,N/A,,Clear,10,2013-03-20 00:55:00
8:15 PM,50.0,19.4,30,30.12,-9999.0,North,8.1,-,N/A,,Clear,10,2013-03-20 01:15:00
8:35 PM,50.0,21.2,32,30.13,-9999.0,NNE,5.8,-,N/A,,Clear,30,2013-03-20 01:35:00
8:55 PM,50.0,19.4,30,30.13,-9999.0,North,3.5,-,N/A,,Scattered Clouds,10,2013-03-20 01:55:00
9:15 PM,48.2,21.2,34,30.14,-9999.0,Calm,Calm,-,N/A,,Scattered Clouds,0,2013-03-20 02:15:00
9:35 PM,48.2,19.4,32,-9999,-9999.0,NNE,6.9,-,N/A,,Scattered Clouds,30,2013-03-20 02:35:00
9:55 PM,48.2,19.4,32,-9999,-9999.0,ENE,3.5,-,N/A,,Mostly Cloudy,70,2013-03-20 02:55:00
10:15 PM,46.4,23.0,40,-9999,-9999.0,NE,3.5,-,N/A,,Mostly Cloudy,40,2013-03-20 03:15:00
10:35 PM,46.4,23.0,40,-9999,-9999.0,North,3.5,-,N/A,,Mostly Cloudy,360,2013-03-20 03:35:00
10:55 PM,44.6,26.6,49,-9999,-9999.0,Calm,Calm,-,N/A,,Scattered Clouds,0,2013-03-20 03:55:00
11:15 PM,42.8,24.8,49,30.14,-9999.0,Calm,Calm,-,N/A,,Clear,0,2013-03-20 04:15:00
11:35 PM,41.0,24.8,53,30.15,-9999.0,North,3.5,-,N/A,,Clear,10,2013-03-20 04:35:00
11:55 PM,41.0,24.8,53,30.14,-9999.0,Calm,Calm,-,N/A,,Clear,0,2013-03-20 04:55:00